Weather History for Kecskemet, Hungary

Change the Weather History Date:

Wednesday, May 8, 2013

  Actual Average (LHBP) Record (LHBP)
Temperature  
Mean Temperature 67 °F -  
Max Temperature 77 °F 69 °F 89 °F (2003)
Min Temperature 57 °F 47 °F 39 °F (2008)
Cooling Degree Days 2    
Growing Degree Days 17 (Base 50)    
Moisture  
Dew Point 56 °F    
Average Humidity 70    
Maximum Humidity 94    
Minimum Humidity 47    
Precipitation  
Precipitation 0.00 in - - ()
Sea Level Pressure  
Sea Level Pressure 30.02 in    
Wind  
Wind Speed 4 mph ()    
Max Wind Speed 9 mph    
Max Gust Speed -    
Visibility 5.9 miles    
Events Rain , Thunderstorm    
Averages and records for this station are not official NWS values.
T = Trace of Precipitation, MM = Missing Value Source: Averaged Metar Reports

Daily Weather History Graph

Daily Weather History Graph

Search for Another Location

Airport:

Trip Planner

Search our weather history database for the weather conditions in past years. The results will help you decide how hot, cold, wet, or windy it might be!

Date:

Astronomy

May. 08, 2013 Rise Set
Actual Time 5:15 AM CEST 8:00 PM CEST
Civil Twilight 4:40 AM CEST 8:35 PM CEST
Nautical Twilight 3:56 AM CEST 9:20 PM CEST
Astronomical Twilight 3:04 AM CEST 10:12 PM CEST
Moon 4:18 AM CEST (5/8) 6:37 PM CEST (5/8)
Length of Visible Light 15h 55m
Length of Day
14h 45m
Waning Crescent, 2% of the Moon is Illuminated
May 8
Waning Crescent
May 10
New
May 18
First Quarter
May 25
Full
May 31
Last Quarter

Hourly Weather History & Observations

Time (CEST) Temp. Dew Point Humidity Pressure Visibility Wind Dir Wind Speed Gust Speed Precip Events Conditions
12:15 AM 60.8 °F 59.0 °F 94% 30.04 in - NE 2.2 mph - N/A   Clear
12:45 AM 62.6 °F 60.8 °F 94% 30.04 in 5.0 mi NE 2.2 mph - N/A   Mostly Cloudy
1:15 AM 64.4 °F 57.2 °F 77% 30.04 in 5.0 mi SSE 4.5 mph - N/A Rain , Thunderstorm Light Thunderstorms and Rain
1:45 AM 62.6 °F 57.2 °F 82% 30.01 in 5.0 mi SSE 2.2 mph - N/A Rain , Thunderstorm Light Thunderstorms and Rain
2:00 AM 60.8 °F 57.2 °F 88% 30.01 in 6.2 mi ENE 2.2 mph - N/A   Mostly Cloudy
2:15 AM 60.8 °F 57.2 °F 88% 30.01 in 5.0 mi NE 4.5 mph - N/A   Unknown
2:45 AM 60.8 °F 57.2 °F 88% 30.01 in - ENE 2.2 mph - N/A   Clear
3:15 AM 57.2 °F 55.4 °F 94% 30.01 in - NE 2.2 mph - N/A   Clear
3:45 AM - - N/A% - 6.2 mi Variable 4.5 mph - N/A   Overcast
4:15 AM 59.0 °F 55.4 °F 88% 30.01 in 6.2 mi Calm Calm - N/A   Scattered Clouds
4:45 AM 59.0 °F 57.2 °F 94% 30.01 in 6.2 mi Calm Calm - N/A   Scattered Clouds
5:15 AM 60.8 °F 57.2 °F 88% 30.01 in 5.0 mi Calm Calm - N/A   Scattered Clouds
5:45 AM 59.0 °F 55.4 °F 88% 30.01 in 5.0 mi ESE 2.2 mph - N/A   Scattered Clouds
6:15 AM 64.4 °F 53.6 °F 68% 30.04 in 6.2 mi SSE 4.5 mph - N/A   Mostly Cloudy
6:45 AM - - N/A% - 6.2 mi SE 8.9 mph - N/A   Mostly Cloudy
7:15 AM 62.6 °F 55.4 °F 77% 30.04 in 6.2 mi South 8.9 mph - N/A   Mostly Cloudy
7:45 AM 64.4 °F 55.4 °F 73% 30.04 in 6.2 mi South 6.7 mph - N/A   Mostly Cloudy
8:15 AM 64.4 °F 55.4 °F 73% 30.04 in 6.2 mi SSE 4.5 mph - N/A   Mostly Cloudy
8:43 AM 66.2 °F 55.4 °F 68% 30.04 in 6.2 mi SSE 4.5 mph - N/A Rain Light Rain Showers
8:45 AM 66.2 °F 57.2 °F 73% 30.06 in 6.2 mi SSE 6.7 mph - N/A Rain Light Rain Showers
9:15 AM 64.4 °F 57.2 °F 77% 30.04 in 6.2 mi SE 4.5 mph - N/A   Mostly Cloudy
9:45 AM - - N/A% - 6.2 mi Variable 4.5 mph - N/A   Clear
10:15 AM 66.2 °F 55.4 °F 68% 30.04 in 6.2 mi North 2.2 mph - N/A   Mostly Cloudy
10:45 AM 68.0 °F 53.6 °F 60% 30.04 in 6.2 mi Calm Calm - N/A   Mostly Cloudy
11:15 AM 69.8 °F 55.4 °F 60% 30.04 in 6.2 mi SE 4.5 mph - N/A   Mostly Cloudy
11:24 AM 69.8 °F 53.6 °F 56% 30.04 in 6.2 mi SE 8.9 mph - N/A   Mostly Cloudy
11:43 AM 68.0 °F 53.6 °F 60% 30.04 in 6.2 mi SSE 6.7 mph - N/A Rain Light Rain Showers
11:45 AM 68.0 °F 53.6 °F 60% 30.04 in 6.2 mi SSE 6.7 mph - N/A Rain Light Rain Showers
12:15 PM 68.0 °F 50.0 °F 52% 30.04 in 6.2 mi SE 6.7 mph - N/A   Mostly Cloudy
12:45 PM - - N/A% - 6.2 mi Variable 4.5 mph - N/A   Mostly Cloudy
1:15 PM 71.6 °F 55.4 °F 57% 30.04 in - SE 6.7 mph - N/A   Clear
1:45 PM 73.4 °F 55.4 °F 53% 30.04 in - SE 6.7 mph - N/A   Clear
2:15 PM 75.2 °F 55.4 °F 50% 30.01 in - SSE 6.7 mph - N/A   Clear
2:45 PM 75.2 °F 57.2 °F 53% 30.01 in 6.2 mi SSE 6.7 mph - N/A   Mostly Cloudy
3:15 PM 75.2 °F 55.4 °F 50% 30.01 in 6.2 mi ENE 6.7 mph - N/A   Mostly Cloudy
3:45 PM - - N/A% - 1.9 mi Variable 4.5 mph - N/A Rain , Thunderstorm Rain Showers
4:15 PM 77.0 °F 55.4 °F 47% 29.98 in 6.2 mi East 8.9 mph - N/A   Mostly Cloudy
4:33 PM 75.2 °F 55.4 °F 50% 29.98 in 6.2 mi ENE 6.7 mph - N/A Rain Light Rain Showers
4:45 PM 75.2 °F 57.2 °F 53% 29.98 in 6.2 mi ENE 6.7 mph - N/A   Mostly Cloudy
5:15 PM 75.2 °F 57.2 °F 53% 29.98 in 6.2 mi ENE 4.5 mph - N/A   Mostly Cloudy
5:45 PM 75.2 °F 57.2 °F 53% 29.98 in 6.2 mi NE 4.5 mph - N/A   Mostly Cloudy
6:15 PM 73.4 °F 57.2 °F 57% 29.98 in 6.2 mi NNE 2.2 mph - N/A   Mostly Cloudy
6:45 PM 73.4 °F 57.2 °F 57% 29.98 in 6.2 mi NNE 2.2 mph - N/A   Mostly Cloudy
7:15 PM 69.8 °F 59.0 °F 68% 29.98 in - North 2.2 mph - N/A   Clear
7:45 PM 68.0 °F 57.2 °F 68% 29.98 in - North 2.2 mph - N/A   Clear
8:15 PM 64.4 °F 57.2 °F 77% 30.01 in - NNE 2.2 mph - N/A   Clear
8:45 PM 64.4 °F 57.2 °F 77% 30.01 in - North 2.2 mph - N/A   Clear
9:15 PM 66.2 °F 57.2 °F 73% 30.01 in - Calm Calm - N/A   Clear
9:45 PM - - N/A% - - Variable 4.5 mph - N/A   Clear
10:15 PM 62.6 °F 57.2 °F 82% 30.04 in - East 2.2 mph - N/A   Clear
10:45 PM 64.4 °F 57.2 °F 77% 30.04 in - ESE 2.2 mph - N/A   Clear
11:15 PM 64.4 °F 55.4 °F 73% 30.04 in - ESE 4.5 mph - N/A   Clear
11:45 PM 66.2 °F 55.4 °F 68% 30.04 in - ESE 4.5 mph - N/A   Clear